Weather History for Grayling, MI

Change the Weather History Date:

Wednesday, November 7, 2012

  Actual Average (KHTL) Record (KHTL)
Temperature  
Mean Temperature 32 °F 38 °F  
Max Temperature 43 °F 46 °F 64 °F (1924)
Min Temperature 22 °F 30 °F 11 °F (2002)
Degree Days  
Heating Degree Days 32 27  
Month to date heating degree days 181  
Since 1 July heating degree days 1159  
Moisture  
Dew Point 28 °F    
Average Humidity 80    
Maximum Humidity 100    
Minimum Humidity 54    
Precipitation  
Precipitation 0.00 in 0.08 in 0.89 in (1943)
Month to date precipitation 0.56  
Year to date precipitation 25.34  
Snow  
Snow 0.00 in 0.20 in 3.00 in (1941)
Month to date snowfall 1.0  
Since 1 July snowfall 1.6  
Snow Depth -    
Sea Level Pressure  
Sea Level Pressure 30.09 in    
Wind  
Wind Speed 3 mph (ESE)    
Max Wind Speed 10 mph    
Max Gust Speed -    
Visibility 10 miles    
Events      
T = Trace of Precipitation, MM = Missing Value Source: NWS Daily Summary

Daily Weather History Graph

Daily Weather History Graph

Search for Another Location

Airport:

Trip Planner

Search our weather history database for the weather conditions in past years. The results will help you decide how hot, cold, wet, or windy it might be!

Date:

Astronomy

Nov. 07, 2012 Rise Set
Actual Time 7:25 AM EST 5:19 PM EST
Civil Twilight 6:54 AM EST 5:50 PM EST
Nautical Twilight 6:19 AM EST 6:24 PM EST
Astronomical Twilight 5:45 AM EST 6:59 PM EST
Moon 12:01 AM EST (11/7) 1:43 PM EST (11/7)
Length of Visible Light 10h 55m
Length of Day
9h 53m
Last Quarter, 43% of the Moon is Illuminated
Nov 7
Last Quarter
Nov 13
New
Nov 20
First Quarter
Nov 28
Full
Dec 6
Last Quarter

Hourly Weather History & Observations

Time (EST) Temp. Windchill Dew Point Humidity Pressure Visibility Wind Dir Wind Speed Gust Speed Precip Events Conditions
12:12 AM 37.0 °F 32.4 °F 30.2 °F 76% 30.00 in 10.0 mi SE 5.8 mph - N/A   Overcast
12:32 AM 37.0 °F 31.6 °F 30.2 °F 76% 30.01 in 10.0 mi SE 6.9 mph - N/A   Overcast
12:53 AM 37.0 °F 32.4 °F 30.6 °F 77% 30.01 in 10.0 mi SE 5.8 mph - N/A   Overcast
1:13 AM 37.0 °F 34.5 °F 30.6 °F 77% 30.01 in 10.0 mi SE 3.5 mph - N/A   Overcast
1:33 AM 36.9 °F 33.1 °F 30.4 °F 77% 30.01 in 10.0 mi SE 4.6 mph - N/A   Overcast
1:53 AM 35.6 °F 30.7 °F 29.3 °F 78% 30.01 in 10.0 mi SE 5.8 mph - N/A   Overcast
2:13 AM 35.1 °F 32.2 °F 29.3 °F 80% 30.02 in 10.0 mi ESE 3.5 mph - N/A   Overcast
2:33 AM 34.9 °F 32.0 °F 29.3 °F 80% 30.02 in 10.0 mi ESE 3.5 mph - N/A   Overcast
2:53 AM 34.7 °F 30.6 °F 29.1 °F 80% 30.02 in 10.0 mi ESE 4.6 mph - N/A   Overcast
3:13 AM 33.8 °F 30.8 °F 29.5 °F 84% 30.02 in 10.0 mi East 3.5 mph - N/A   Mostly Cloudy
3:53 AM 30.6 °F 27.1 °F 28.2 °F 91% 30.03 in 10.0 mi East 3.5 mph - N/A   Scattered Clouds
4:14 AM 29.8 °F 26.3 °F 28.2 °F 94% 30.03 in 10.0 mi East 3.5 mph - N/A   Mostly Cloudy
4:34 AM 29.8 °F - 28.8 °F 96% 30.03 in 10.0 mi Calm Calm - N/A   Mostly Cloudy
4:54 AM 29.8 °F - 29.3 °F 98% 30.03 in 10.0 mi Calm Calm - N/A   Scattered Clouds
5:14 AM 29.3 °F - 28.6 °F 97% 30.04 in 7.0 mi Calm Calm - N/A   Clear
5:34 AM 27.3 °F - 27.1 °F 99% 30.05 in 7.0 mi Calm Calm - N/A   Clear
5:54 AM 27.0 °F - 26.6 °F 99% 30.05 in 7.0 mi Calm Calm - N/A   Mostly Cloudy
6:14 AM 28.2 °F - 28.2 °F 100% 30.05 in 7.0 mi Calm Calm - N/A   Overcast
6:34 AM 27.9 °F - 27.5 °F 99% 30.06 in 7.0 mi Calm Calm - N/A   Overcast
6:54 AM 30.6 °F - 30.2 °F 99% 30.07 in 10.0 mi Calm Calm - N/A   Overcast
7:14 AM 32.0 °F - 30.9 °F 96% 30.08 in 10.0 mi Calm Calm - N/A   Overcast
7:35 AM 32.0 °F - 30.7 °F 95% 30.08 in 10.0 mi Calm Calm - N/A   Overcast
7:55 AM 32.0 °F - 30.4 °F 94% 30.09 in 10.0 mi Calm Calm - N/A   Overcast
8:10 AM 32.0 °F - 30.6 °F 94% 30.09 in 10.0 mi Calm Calm - N/A   Overcast
8:30 AM 34.7 °F - 32.2 °F 91% 30.10 in 10.0 mi Calm Calm - N/A   Overcast
8:50 AM 34.7 °F - 32.0 °F 90% 30.10 in 10.0 mi Calm Calm - N/A   Overcast
9:10 AM 34.7 °F - 31.1 °F 87% 30.10 in 10.0 mi Calm Calm - N/A   Overcast
9:30 AM 35.4 °F - 30.6 °F 82% 30.10 in 10.0 mi Calm Calm - N/A   Overcast
9:50 AM 37.0 °F 34.5 °F 31.1 °F 79% 30.11 in 10.0 mi East 3.5 mph - N/A   Overcast
10:10 AM 37.0 °F - 29.1 °F 73% 30.11 in 10.0 mi Calm Calm - N/A   Overcast
10:30 AM 37.2 °F - 28.4 °F 70% 30.11 in 10.0 mi Calm Calm - N/A   Overcast
10:51 AM 39.6 °F - 29.3 °F 67% 30.11 in 10.0 mi Calm Calm - N/A   Scattered Clouds
11:11 AM 41.7 °F 37.3 °F 29.7 °F 62% 30.12 in 10.0 mi ESE 6.9 mph - N/A   Clear
11:31 AM 41.2 °F 36.6 °F 28.9 °F 62% 30.12 in 10.0 mi ESE 6.9 mph - N/A   Mostly Cloudy
11:51 AM 41.0 °F 34.7 °F 29.1 °F 63% 30.12 in 10.0 mi ESE 10.4 mph - N/A   Overcast
12:11 PM 41.0 °F 35.8 °F 29.7 °F 64% 30.11 in 10.0 mi ESE 8.1 mph - N/A   Overcast
12:31 PM 40.6 °F 34.3 °F 29.7 °F 65% 30.11 in 10.0 mi East 10.4 mph - N/A   Overcast
12:51 PM 40.8 °F 35.6 °F 29.5 °F 64% 30.11 in 10.0 mi ESE 8.1 mph - N/A   Overcast
1:11 PM 41.0 °F 36.4 °F 28.9 °F 62% 30.11 in 10.0 mi East 6.9 mph - N/A   Overcast
1:31 PM 41.0 °F 36.4 °F 28.9 °F 62% 30.10 in 10.0 mi East 6.9 mph - N/A   Overcast
1:51 PM 43.0 °F 38.8 °F 28.8 °F 57% 30.09 in 10.0 mi ESE 6.9 mph - N/A   Overcast
2:12 PM 41.4 °F 37.6 °F 27.7 °F 58% 30.09 in 10.0 mi SE 5.8 mph - N/A   Mostly Cloudy
2:32 PM 42.8 °F 40.1 °F 27.7 °F 55% 30.09 in 10.0 mi ESE 4.6 mph - N/A   Clear
2:52 PM 42.6 °F 40.9 °F 27.5 °F 55% 30.09 in 10.0 mi ESE 3.5 mph - N/A   Clear
3:12 PM 42.8 °F - 27.3 °F 54% 30.09 in 10.0 mi Calm Calm - N/A   Clear
3:32 PM 42.8 °F - 27.1 °F 54% 30.09 in 10.0 mi Calm Calm - N/A   Clear
3:52 PM 43.0 °F - 27.3 °F 54% 30.09 in 10.0 mi Calm Calm - N/A   Clear
4:13 PM 42.4 °F - 27.0 °F 54% 30.10 in 10.0 mi Calm Calm - N/A   Clear
4:38 PM 42.3 °F - 26.6 °F 54% 30.11 in 10.0 mi Calm Calm - N/A   Clear
4:53 PM 41.0 °F 38.0 °F 27.9 °F 60% 30.10 in 10.0 mi East 4.6 mph - N/A   Clear
5:13 PM 39.2 °F 35.9 °F 28.2 °F 65% 30.10 in 10.0 mi East 4.6 mph - N/A   Clear
5:33 PM 37.0 °F 34.5 °F 27.3 °F 68% 30.11 in 10.0 mi East 3.5 mph - N/A   Clear
5:53 PM 34.7 °F - 27.7 °F 76% 30.12 in 10.0 mi Calm Calm - N/A   Clear
6:14 PM 29.8 °F - 25.3 °F 83% 30.13 in 10.0 mi Calm Calm - N/A   Scattered Clouds
6:34 PM 30.9 °F - 27.0 °F 85% 30.13 in 10.0 mi Calm Calm - N/A   Scattered Clouds
6:54 PM 30.0 °F - 26.6 °F 87% 30.13 in 10.0 mi Calm Calm - N/A   Clear
7:14 PM 29.8 °F - 26.8 °F 88% 30.14 in 10.0 mi Calm Calm - N/A   Clear
7:34 PM 29.8 °F - 27.1 °F 90% 30.14 in 10.0 mi Calm Calm - N/A   Clear
7:54 PM 29.8 °F - 27.3 °F 90% 30.14 in 10.0 mi Calm Calm - N/A   Clear
8:14 PM 25.9 °F - 23.9 °F 92% 30.14 in 10.0 mi Calm Calm - N/A   Clear
8:34 PM 27.3 °F - 25.7 °F 94% 30.15 in 10.0 mi Calm Calm - N/A   Clear
8:55 PM 25.7 °F - 23.4 °F 91% 30.15 in 10.0 mi Calm Calm - N/A   Clear
9:10 PM 26.2 °F - 24.4 °F 93% 30.15 in 10.0 mi Calm Calm - N/A   Clear
9:30 PM 25.0 °F - 23.9 °F 96% 30.16 in 10.0 mi Calm Calm - N/A   Clear
9:50 PM 26.6 °F - 25.3 °F 95% 30.16 in 10.0 mi Calm Calm - N/A   Clear
10:10 PM 24.8 °F - 23.7 °F 96% 30.16 in 10.0 mi Calm Calm - N/A   Clear
10:30 PM 26.2 °F - 25.0 °F 95% 30.15 in 10.0 mi Calm Calm - N/A   Clear
10:50 PM 24.1 °F - 22.5 °F 94% 30.15 in 10.0 mi Calm Calm - N/A   Clear
11:10 PM 22.8 °F - 22.3 °F 98% 30.15 in 10.0 mi Calm Calm - N/A   Clear
11:30 PM 22.6 °F - 21.4 °F 95% 30.15 in 10.0 mi Calm Calm - N/A   Clear
11:50 PM 23.2 °F - 22.3 °F 96% 30.15 in 10.0 mi Calm Calm - N/A   Clear